Portada
METAR-TAF:

METAR-TAF

Aeroports :

Batesville, Arkansas, Estats Units d'Amèrica

latitud: 35-44N, longitud: 091-39W, altitud: 141 m

Observació

L'informe es va fer fa 33 minuts, a les 10:56 UTC
Vent calma
Temperatura -5°C
Humitat 86%
Pressió 1023 hPa
Visibilitat: 16.1 km
Cel clar

METAR: KBVX 011056Z AUTO 00000KT 10SM CLR M05/M07 A3020 RMK AO2 SLP231 T10501067 FZRANO

Hora: 05:29 (11:29 UTC)


TAF: manca

Observacions i pronòstics meteorològics de més de 4000 aeroports (METAR i TAF).

Les estacions disponibles són els punts grocs i vermells al mapa.

Posi el ratolí al punt desitjat per veure el nom de l'estació.

Feu clic per veure les observacions i els pronòstics meteorològics.

Per canviar el mapa: feu clic els botons verds amb una creu de color negre per apropar; al botó verd amb un guió per allunyar la imatge; o en les fletxes verdes per a mapes adjacents.


METAR-TAF: